Location: Cabo di Oristano
(39.8500°N, 8.4333°E)
Time: 17:12:46
(UTC+00:00)

Cosmos 1536 Rocket - Pass Details

Date: 31 January 2023
Orbit: 604 x 631 km, 82.5° (Epoch: 01 April)

Event Time Altitude Azimuth Distance (km) Brightness Sun altitude
Exits shadow 04:56:18 - 348° (NNW) 2,184 6.2 -19.3°
Reaches altitude 10° 04:56:47 10° 347° (NNW) 1,991 6.0 -19.2°
Maximum altitude 05:01:10 69° 265° (W) 670 3.4 -18.3°
Drops below altitude 10° 05:05:33 10° 182° (S) 1,992 6.2 -17.5°
Sets 05:07:47 0° 180° (S) 2,898 7.1 -17.1°
